Location: Fouquenies
(49.4624°N, 2.0492°E)
Time: 12:10:45
(UTC+00:00)

Lacrosse 5 - Visible Passes

Search period start: 04 November 2024 00:00
Search period end: 14 November 2024 00:00
Orbit: 714 x 724 km, 57.0° (Epoch: 09 March)

Date Brightness Start Highest point End Pass type
(mag) Time Alt. Az. Time Alt. Az. Time Alt. Az.
04 Nov 5.1 17:16:52 10° W 17:19:14 13° WSW 17:21:37 10° SSW visible
09 Nov 5.0 05:58:19 10° SSE 06:01:15 15° ESE 06:04:10 10° E visible
11 Nov 4.3 05:53:18 10° S 05:57:29 26° SE 06:01:41 10° ENE visible
12 Nov 4.8 05:01:49 10° SSE 05:04:43 15° ESE 05:07:36 10° E visible
13 Nov 3.2 05:49:04 10° SSW 05:53:51 42° SE 05:58:40 10° ENE visible
